Dunkirk, NY

1:25 AM EDT on April 30, 2017 (GMT -0400)
Chautauqua County-Dunkirk

Weather History for KDKK - May, 2013

Change the Weather History Date:

Saturday, May 18, 2013

  Actual Average Record
Temperature  
Mean Temperature 63 °F -  
Max Temperature 71 °F 68 °F 87 °F (1931)
Min Temperature 55 °F 46 °F 30 °F (1997)
Degree Days  
Heating Degree Days 2    
Growing Degree Days 13 (Base 50)    
Moisture  
Dew Point 44 °F    
Average Humidity 52    
Maximum Humidity 78    
Minimum Humidity 39    
Precipitation  
Precipitation 0.00 in - - ()
Sea Level Pressure  
Sea Level Pressure 30.16 in    
Wind  
Wind Speed 5 mph (NE)    
Max Wind Speed 9 mph    
Max Gust Speed -    
Visibility 10 miles    
Events      
Averages and records for this station are not official NWS values.
T = Trace of Precipitation, MM = Missing Value Source: NWS Daily Summary

Daily Weather History Graph

Daily Weather History Graph

Search for Another Location

Airport or City:

Trip Planner

Search our weather history database for the weather conditions in past years. The results will help you decide how hot, cold, wet, or windy it might be!

Date:

Astronomy

May. 18, 2013 Rise Set
Actual Time 5:52 AM EDT 8:35 PM EDT
Civil Twilight 5:19 AM EDT 9:08 PM EDT
Nautical Twilight 4:38 AM EDT 9:49 PM EDT
Astronomical Twilight 3:51 AM EDT 10:36 PM EDT
Moon 1:28 PM EDT (5/18) 1:52 AM EDT (5/18)
Length of Visible Light 15h 48m
Length of Day
14h 43m
First Quarter, 55% of the Moon is Illuminated
May 18
First Quarter
May 25
Full
May 31
Last Quarter
Jun 8
New
Jun 16
First Quarter

Hourly Weather History & Observations

Time (EDT) Temp. Dew Point Humidity Pressure Visibility Wind Dir Wind Speed Gust Speed Precip Events Conditions
12:53 AM 59.0 °F 39.0 °F 48% 30.19 in 10.0 mi East 5.8 mph - N/A   Mostly Cloudy
1:53 AM 57.9 °F 39.9 °F 51% 30.19 in 10.0 mi NNE 3.5 mph - N/A   Overcast
2:53 AM 55.9 °F 41.0 °F 57% 30.19 in 10.0 mi NNE 3.5 mph - N/A   Overcast
3:53 AM 57.9 °F 39.0 °F 49% 30.17 in 10.0 mi East 8.1 mph - N/A   Overcast
4:53 AM 59.0 °F 36.0 °F 42% 30.16 in 10.0 mi ESE 8.1 mph - N/A   Mostly Cloudy
5:53 AM 59.0 °F 35.1 °F 41% 30.15 in 10.0 mi East 5.8 mph - N/A   Mostly Cloudy
6:53 AM 57.9 °F 37.0 °F 46% 30.18 in 10.0 mi North 6.9 mph - N/A   Overcast
7:53 AM 55.9 °F 43.0 °F 62% 30.20 in 10.0 mi NNE 6.9 mph - N/A   Overcast
8:53 AM 57.0 °F 44.1 °F 62% 30.20 in 10.0 mi NE 4.6 mph - N/A   Overcast
9:53 AM 61.0 °F 42.1 °F 50% 30.20 in 10.0 mi East 5.8 mph - N/A   Overcast
10:53 AM 64.9 °F 41.0 °F 42% 30.19 in 10.0 mi East 3.5 mph - N/A   Overcast
11:53 AM 66.0 °F 45.0 °F 47% 30.19 in 10.0 mi North 8.1 mph - N/A   Mostly Cloudy
12:53 PM 62.1 °F 44.1 °F 52% 30.18 in 10.0 mi NNE 8.1 mph - N/A   Overcast
1:53 PM 64.0 °F 44.1 °F 48% 30.17 in 10.0 mi NE 6.9 mph - N/A   Overcast
3:53 PM 71.1 °F 45.0 °F 39% 30.14 in 10.0 mi NNE 9.2 mph - N/A   Overcast
4:53 PM 69.1 °F 45.0 °F 42% 30.13 in 10.0 mi NNE 6.9 mph - N/A   Mostly Cloudy
5:53 PM 70.0 °F 44.1 °F 39% 30.12 in 10.0 mi NNE 9.2 mph - N/A   Mostly Cloudy
6:53 PM 70.0 °F 45.0 °F 41% 30.11 in 10.0 mi NNE 6.9 mph - N/A   Clear
7:53 PM 66.9 °F 46.9 °F 49% 30.11 in 10.0 mi NNE 4.6 mph - N/A   Mostly Cloudy
8:53 PM 64.0 °F 51.1 °F 63% 30.11 in 10.0 mi Calm Calm - N/A   Overcast
9:53 PM 62.1 °F 51.1 °F 67% 30.12 in 10.0 mi Calm Calm - N/A   Overcast
10:53 PM 60.1 °F 52.0 °F 75% 30.10 in 10.0 mi Calm Calm - N/A   Clear
11:53 PM 59.0 °F 52.0 °F 78% 30.10 in 10.0 mi Calm Calm - N/A   Clear